This is the latest recevied weather packets stored in our database for station/object WX5RP. If no packets are shown the sender has not sent any weather packets the latest 10 day(s).
| Time | Temp. | Humidity | Pressure | Rain* | Wind** | Luminosity | Snow |
|---|---|---|---|---|---|---|---|
| 1777606517 | 10.56° C | 43% | 1017 hPa | 0 mm | - | 0 W/m² | - |
| 1777605917 | 11.67° C | 42% | 1016.7 hPa | 0 mm | - | 0 W/m² | - |
| 1777605334 | 12.78° C | 39% | 1017 hPa | 0 mm | - | 0 W/m² | - |
| 1777604717 | 13.89° C | 35% | 1017.3 hPa | 0 mm | - | 0 W/m² | - |
| 1777604117 | 15° C | 32% | 1016.9 hPa | 0 mm | - | 8 W/m² | - |
| 1777603517 | 16.11° C | 31% | 1016.9 hPa | 0 mm | - | 14 W/m² | - |
| 1777602917 | 16.67° C | 30% | 1016.3 hPa | 0 mm | - | 20 W/m² | - |
| 1777602316 | 17.22° C | 31% | 1016 hPa | 0 mm | - | 35 W/m² | - |
| 1777601717 | 17.78° C | 30% | 1016 hPa | 0 mm | - | 36 W/m² | - |
| 1777601116 | 18.33° C | 27% | 1017.2 hPa | 0 mm | - | 51 W/m² | - |
| 1777600517 | 18.89° C | 26% | 1017 hPa | 0 mm | - | 99 W/m² | - |
| 1777599916 | 19.44° C | 27% | 1017 hPa | 0 mm | - | 88 W/m² | - |
| 1777599316 | 20° C | 22% | 1016.6 hPa | 0 mm | - | 87 W/m² | - |
| 1777598716 | 20° C | 23% | 1016.7 hPa | 0 mm | - | 209 W/m² | - |
| 1777598118 | 20.56° C | 23% | 1016.7 hPa | 0 mm | - | 141 W/m² | - |
| 1777597516 | 20.56° C | 23% | 1017.6 hPa | 0 mm | - | 293 W/m² | - |
| 1777596916 | 21.11° C | 23% | 1017.6 hPa | 0 mm | - | 274 W/m² | - |
| 1777596316 | 21.11° C | 24% | 1017.6 hPa | 0 mm | - | 294 W/m² | - |
| 1777595716 | 21.67° C | 21% | 1017.5 hPa | 0 mm | - | 424 W/m² | - |
| 1777595116 | 21.11° C | 21% | 1017.8 hPa | 0 mm | - | 557 W/m² | - |
| 1777594516 | 20.56° C | 22% | 1017.8 hPa | 0 mm | - | 473 W/m² | - |
| 1777593916 | 21.11° C | 23% | 1017.6 hPa | 0 mm | - | 493 W/m² | - |
| 1777593316 | 20.56° C | 20% | 1017.6 hPa | 0 mm | - | 511 W/m² | - |
| 1777592716 | 20.56° C | 22% | 1017.6 hPa | 0 mm | - | 512 W/m² | - |
| 1777592116 | 20.56° C | 23% | 1017.8 hPa | 0 mm | - | 629 W/m² | - |
* Rain latest hour (hover to see other rain measurements)
** Current wind speed in m/s (hover to see current wind gust speed)